Location: Diebersbach
(48.5163°N, 8.0558°E)
Time: 01:09:32
(UTC+00:00)

USA 229 - Visible Passes

Search period start: 24 October 2021 00:00
Search period end: 03 November 2021 00:00
Orbit: 950 x 1263 km, 63.4° (Epoch: 22 October)

Date Brightness Start Highest point End Pass type
(mag) Time Alt. Az. Time Alt. Az. Time Alt. Az.
24 Oct 5.5 01:52:21 24° ESE 01:52:21 24° ESE 01:55:10 10° SE visible
24 Oct 4.7 03:39:55 32° SW 03:39:55 32° SW 03:45:04 10° S visible
24 Oct 4.1 17:27:37 10° S 17:33:24 38° ESE 17:39:14 11° NE visible
24 Oct 4.1 19:17:43 10° WSW 19:24:04 58° NW 19:26:42 37° NNE visible
24 Oct 5.6 21:10:57 10° WNW 21:14:10 22° NW 21:14:10 22° NW visible
25 Oct 5.3 02:58:10 24° S 02:58:10 24° S 03:01:02 10° SSE visible
25 Oct 4.6 16:44:00 10° SSE 16:48:58 25° ESE 16:54:11 10° ENE visible
25 Oct 3.6 18:32:42 10° SW 18:39:08 80° NW 18:43:41 23° NE visible
25 Oct 5.1 20:25:20 10° W 20:31:08 31° NNW 20:31:09 31° NNW visible
26 Oct 6.1 02:16:23 11° SSE 02:16:23 11° SSE 02:16:35 10° SSE visible
26 Oct 3.5 17:48:00 10° SSW 17:54:21 73° SE 18:00:34 13° NE visible
26 Oct 4.8 19:39:48 10° W 19:45:50 37° NNW 19:48:01 30° N visible
26 Oct 6.0 21:33:26 10° NW 21:35:28 17° NW 21:35:28 17° NW visible
27 Oct 3.9 17:03:37 10° SSW 17:09:42 49° ESE 17:16:11 10° NE visible
27 Oct 4.4 18:54:25 10° WSW 19:00:41 48° NW 19:04:48 23° NNE visible
27 Oct 5.5 20:47:54 10° WNW 20:52:15 24° NNW 20:52:15 24° NNW visible
28 Oct 3.9 18:09:15 10° SW 18:15:39 65° NW 18:21:32 15° NE visible
28 Oct 5.2 20:02:17 10° WNW 20:07:56 28° NNW 20:08:58 27° N visible
28 Oct 6.2 21:55:34 10° NW 21:56:25 13° NW 21:56:25 13° NW visible
29 Oct 3.6 17:24:21 10° SW 17:30:46 90° ESE 17:37:42 10° NE visible
29 Oct 5.0 19:16:42 10° W 19:22:34 33° NNW 19:25:39 24° NNE visible
29 Oct 5.8 21:10:16 10° NW 21:13:05 19° NNW 21:13:05 19° NNW visible
30 Oct 3.7 16:39:46 10° SSW 16:46:02 63° ESE 16:52:46 10° NE visible
30 Oct 4.7 18:31:13 10° WSW 18:37:20 41° NNW 18:42:17 17° NNE visible
30 Oct 5.5 20:24:48 10° WNW 20:29:42 24° NNW 20:29:42 24° NNW visible
31 Oct 4.2 17:45:54 10° WSW 17:52:14 54° NW 17:58:53 11° NE visible
31 Oct 5.3 19:39:13 10° WNW 19:44:45 26° NNW 19:46:19 24° N visible
31 Oct 6.1 21:32:14 10° NW 21:33:44 16° NNW 21:33:44 16° NNW visible
01 Nov 3.8 17:00:51 10° SW 17:07:16 75° NW 17:14:12 10° NE visible
01 Nov 5.1 18:53:36 10° W 18:59:21 30° NNW 19:02:53 20° NNE visible
01 Nov 5.7 20:47:02 10° NW 20:50:19 21° NNW 20:50:19 21° NNW visible
02 Nov 4.9 18:08:03 10° W 18:14:03 36° NNW 18:19:27 14° NNE visible
02 Nov 5.4 20:01:40 10° NW 20:06:53 24° N 20:06:53 24° N visible
02 Nov 6.3 21:53:49 10° NW 21:54:18 12° NW 21:54:18 12° NW visible
